,,,PA_Meas_PMT16A,,PR_Meas_QMR101_102,,RH_Meas_QMH101,,SR_Meas_QMS101,,TA_Meas_QMH101,,GenWind,,GenWind,
date,time,status,PA,status,PR,status,RH,status,SR,status,TA,status,DirAvg,status,SpdAvg,
2012-04-02, 00:00:05,VALID,1003.62,VALID,0,VALID,91.174,VALID,0,VALID,23.9159,VALID,74,VALID,0.921094,
2012-04-02, 00:01:05,VALID,1003.61,VALID,0,VALID,91.2808,VALID,0,VALID,23.8963,VALID,74,VALID,0.776563,
2012-04-02, 00:02:05,VALID,1003.58,VALID,0,VALID,91.5707,VALID,0,VALID,23.8555,VALID,74,VALID,0.883203,
2012-04-02, 00:03:05,VALID,1003.55,VALID,0,VALID,91.6775,VALID,0,VALID,23.8768,VALID,74,VALID,0.482031,
2012-04-02, 00:04:05,VALID,1003.55,VALID,0,VALID,91.6394,VALID,0,VALID,23.8555,VALID,88,VALID,0.527344,
2012-04-02, 00:05:05,VALID,1003.51,VALID,0,VALID,91.5707,VALID,0,VALID,23.8378,VALID,88,VALID,0.316406,
2012-04-02, 00:06:05,VALID,1003.49,VALID,0,VALID,91.4944,VALID,0,VALID,23.7988,VALID,88,VALID,0.359375,
2012-04-02, 00:07:05,VALID,1003.53,VALID,0,VALID,91.4486,VALID,0,VALID,23.7988,VALID,88,VALID,0.00117188,
2012-04-02, 00:08:05,VALID,1003.51,VALID,0,VALID,91.3952,VALID,0,VALID,23.7793,VALID,88,VALID,0,
2012-04-02, 00:09:05,VALID,1003.52,VALID,0,VALID,91.3876,VALID,0,VALID,23.7384,VALID,88,VALID,0,
2012-04-02, 00:10:05,VALID,1003.47,VALID,0,VALID,91.4028,VALID,0,VALID,23.7402,VALID,88,VALID,0,
2012-04-02, 00:11:05,VALID,1003.51,VALID,0,VALID,91.4486,VALID,0,VALID,23.7402,VALID,88,VALID,0,
2012-04-02, 00:12:05,VALID,1003.47,VALID,0,VALID,91.4868,VALID,0,VALID,23.7012,VALID,88,VALID,0,
2012-04-02, 00:13:05,VALID,1003.49,VALID,0,VALID,91.4868,VALID,0,VALID,23.6799,VALID,88,VALID,0,
2012-04-02, 00:14:05,VALID,1003.44,VALID,0,VALID,91.5402,VALID,0,VALID,23.6799,VALID,88,VALID,0,
2012-04-02, 00:15:05,VALID,1003.43,VALID,0,VALID,91.6241,VALID,0,VALID,23.6817,VALID,88,VALID,0,
2012-04-02, 00:16:05,VALID,1003.41,VALID,0,VALID,91.6699,VALID,0,VALID,23.6817,VALID,88,VALID,0,
2012-04-02, 00:17:05,VALID,1003.39,VALID,0,VALID,91.647,VALID,0,VALID,23.6409,VALID,88,VALID,0,
2012-04-02, 00:18:05,VALID,1003.37,VALID,0,VALID,91.5554,VALID,0,VALID,23.6427,VALID,88,VALID,0,
2012-04-02, 00:19:05,VALID,1003.36,VALID,0,VALID,91.5097,VALID,0,VALID,23.6232,VALID,88,VALID,0,
2012-04-02, 00:20:05,VALID,1003.37,VALID,0,VALID,91.4944,VALID,0,VALID,23.6036,VALID,88,VALID,0,
2012-04-02, 00:21:05,VALID,1003.3,VALID,0,VALID,91.5707,VALID,0,VALID,23.6036,VALID,98,VALID,0.394531,
2012-04-02, 00:22:05,VALID,1003.31,VALID,0,VALID,91.7538,VALID,0,VALID,23.6036,VALID,98,VALID,0.109766,
2012-04-02, 00:23:05,VALID,1003.32,VALID,0,VALID,91.8759,VALID,0,VALID,23.5823,VALID,98,VALID,0.372266,
2012-04-02, 00:24:05,VALID,1003.32,VALID,0,VALID,91.998,VALID,0,VALID,23.6232,VALID,79,VALID,0.383984,
2012-04-02, 00:25:05,VALID,1003.3,VALID,0,VALID,91.998,VALID,0,VALID,23.6427,VALID,79,VALID,0.320703,
2012-04-02, 00:26:05,VALID,1003.29,VALID,0,VALID,91.9445,VALID,0,VALID,23.6214,VALID,79,VALID,0.385547,
2012-04-02, 00:27:05,VALID,1003.27,VALID,0,VALID,91.9217,VALID,0,VALID,23.6214,VALID,83,VALID,0.432422,
2012-04-02, 00:28:05,VALID,1003.3,VALID,0,VALID,91.9751,VALID,0,VALID,23.6427,VALID,102,VALID,0.59375,
2012-04-02, 00:29:05,VALID,1003.3,VALID,0,VALID,92.0285,VALID,0,VALID,23.6427,VALID,103,VALID,0.555078,
2012-04-02, 00:30:05,VALID,1003.29,VALID,0,VALID,92.0437,VALID,0,VALID,23.6622,VALID,107,VALID,0.772656,
2012-04-02, 00:31:05,VALID,1003.34,VALID,0,VALID,92.1353,VALID,0.104696,VALID,23.6817,VALID,108,VALID,0.744922,
2012-04-02, 00:32:05,VALID,1003.36,VALID,0,VALID,92.1811,VALID,0,VALID,23.6817,VALID,108,VALID,0.592969,
2012-04-02, 00:33:05,VALID,1003.37,VALID,0,VALID,92.1124,VALID,0,VALID,23.6817,VALID,108,VALID,0.559375,
2012-04-02, 00:34:05,VALID,1003.38,VALID,0,VALID,92.059,VALID,0,VALID,23.7012,VALID,108,VALID,0.513281,
2012-04-02, 00:35:05,VALID,1003.39,VALID,0,VALID,91.9674,VALID,0,VALID,23.7012,VALID,108,VALID,0.24375,
2012-04-02, 00:36:05,VALID,1003.4,VALID,0,VALID,91.8988,VALID,0,VALID,23.7012,VALID,108,VALID,0.0335938,
2012-04-02, 00:37:05,VALID,1003.42,VALID,0,VALID,91.8301,VALID,0,VALID,23.6817,VALID,108,VALID,0,
2012-04-02, 00:38:05,VALID,1003.42,VALID,0,VALID,91.7614,VALID,0,VALID,23.6622,VALID,108,VALID,0,
2012-04-02, 00:39:05,VALID,1003.4,VALID,0,VALID,91.7996,VALID,0,VALID,23.6409,VALID,108,VALID,0.147656,
2012-04-02, 00:40:05,VALID,1003.44,VALID,0,VALID,91.8835,VALID,0,VALID,23.6427,VALID,108,VALID,0,
2012-04-02, 00:41:05,VALID,1003.41,VALID,0,VALID,91.9293,VALID,0,VALID,23.6232,VALID,108,VALID,0.0371094,
2012-04-02, 00:42:05,VALID,1003.43,VALID,0,VALID,91.9751,VALID,0,VALID,23.6232,VALID,108,VALID,0.246875,
2012-04-02, 00:43:05,VALID,1003.42,VALID,0,VALID,91.998,VALID,0,VALID,23.6232,VALID,108,VALID,0.200391,
2012-04-02, 00:44:05,VALID,1003.44,VALID,0,VALID,92.0285,VALID,0,VALID,23.6232,VALID,108,VALID,0.478125,
2012-04-02, 00:45:05,VALID,1003.44,VALID,0,VALID,92.0285,VALID,0,VALID,23.6445,VALID,108,VALID,0.516016,
2012-04-02, 00:46:05,VALID,1003.43,VALID,0,VALID,92.0285,VALID,0,VALID,23.6232,VALID,108,VALID,0.398438,
2012-04-02, 00:47:05,VALID,1003.4,VALID,0,VALID,92.0285,VALID,0,VALID,23.6036,VALID,108,VALID,0.0949219,
2012-04-02, 00:48:05,VALID,1003.38,VALID,0,VALID,92.0285,VALID,0,VALID,23.6232,VALID,108,VALID,0.01875,
2012-04-02, 00:49:05,VALID,1003.35,VALID,0,VALID,92.0209,VALID,0,VALID,23.6036,VALID,108,VALID,0.0113281,
2012-04-02, 00:50:05,VALID,1003.35,VALID,0,VALID,92.0056,VALID,0,VALID,23.5841,VALID,108,VALID,0.209375,
2012-04-02, 00:51:05,VALID,1003.34,VALID,0,VALID,92.0437,VALID,0,VALID,23.5841,VALID,108,VALID,0.462109,
2012-04-02, 00:52:05,VALID,1003.32,VALID,0,VALID,92.12,VALID,0,VALID,23.5841,VALID,103,VALID,0.612891,
2012-04-02, 00:53:05,VALID,1003.29,VALID,0,VALID,92.2192,VALID,0,VALID,23.5841,VALID,78,VALID,0.690234,
2012-04-02, 00:54:05,VALID,1003.29,VALID,0,VALID,92.3337,VALID,0,VALID,23.5841,VALID,78,VALID,0.930859,
2012-04-02, 00:55:05,VALID,1003.27,VALID,0,VALID,92.3794,VALID,0,VALID,23.5646,VALID,78,VALID,0.566016,
2012-04-02, 00:56:05,VALID,1003.25,VALID,0,VALID,92.3566,VALID,0,VALID,23.5841,VALID,78,VALID,0.664453,
2012-04-02, 00:57:05,VALID,1003.25,VALID,0,VALID,92.2726,VALID,0,VALID,23.5433,VALID,78,VALID,0.563281,
2012-04-02, 00:58:05,VALID,1003.25,VALID,0,VALID,92.1734,VALID,0,VALID,23.5646,VALID,78,VALID,0.361719,
2012-04-02, 00:59:05,VALID,1003.2,VALID,0,VALID,92.1277,VALID,0,VALID,23.5043,VALID,78,VALID,0.221484,
2012-04-02, 01:00:04,VALID,1003.19,VALID,0,VALID,92.0514,VALID,0,VALID,23.5061,VALID,78,VALID,0.542578,
2012-04-02, 01:01:04,VALID,1003.23,VALID,0,VALID,92.0132,VALID,0,VALID,23.5061,VALID,78,VALID,0.284375,
2012-04-02, 01:02:04,VALID,1003.22,VALID,0,VALID,92.0514,VALID,0,VALID,23.5061,VALID,78,VALID,0.603906,
2012-04-02, 01:03:04,VALID,1003.17,VALID,0,VALID,92.1048,VALID,0,VALID,23.4671,VALID,78,VALID,0.450391,
2012-04-02, 01:04:04,VALID,1003.18,VALID,0,VALID,92.12,VALID,0,VALID,23.4458,VALID,85,VALID,0.519531,
2012-04-02, 01:05:04,VALID,1003.15,VALID,0,VALID,92.0971,VALID,0.104696,VALID,23.4653,VALID,86,VALID,0.0535156,
2012-04-02, 01:06:04,VALID,1003.14,VALID,0,VALID,92.0971,VALID,0,VALID,23.4458,VALID,86,VALID,0.324219,
2012-04-02, 01:07:04,VALID,1003.1,VALID,0,VALID,92.1124,VALID,0,VALID,23.4458,VALID,86,VALID,0.187891,
2012-04-02, 01:08:04,VALID,1003.05,VALID,0,VALID,92.0895,VALID,0,VALID,23.4671,VALID,86,VALID,0.214062,
2012-04-02, 01:09:04,VALID,1003.06,VALID,0,VALID,92.0971,VALID,0,VALID,23.4458,VALID,86,VALID,0.0601562,
2012-04-02, 01:10:04,VALID,1003.03,VALID,0,VALID,92.0895,VALID,0,VALID,23.4475,VALID,86,VALID,0.053125,
2012-04-02, 01:11:04,VALID,1003.02,VALID,0,VALID,92.12,VALID,0,VALID,23.4263,VALID,86,VALID,0,
2012-04-02, 01:12:04,VALID,1003.02,VALID,0,VALID,92.1124,VALID,0,VALID,23.4458,VALID,86,VALID,0,
2012-04-02, 01:13:04,VALID,1002.99,VALID,0,VALID,92.12,VALID,0,VALID,23.4263,VALID,86,VALID,0.390625,
2012-04-02, 01:14:04,VALID,1002.95,VALID,0,VALID,92.12,VALID,0,VALID,23.4263,VALID,86,VALID,0.733594,
2012-04-02, 01:15:04,VALID,1002.96,VALID,0,VALID,92.12,VALID,0,VALID,23.4263,VALID,86,VALID,0.667188,
2012-04-02, 01:16:04,VALID,1002.96,VALID,0,VALID,92.0743,VALID,0,VALID,23.4475,VALID,86,VALID,0.6875,
2012-04-02, 01:17:04,VALID,1002.94,VALID,0,VALID,92.0361,VALID,0,VALID,23.428,VALID,86,VALID,0.208594,
2012-04-02, 01:18:04,VALID,1002.93,VALID,0,VALID,92.0361,VALID,0,VALID,23.4067,VALID,86,VALID,0.152344,
2012-04-02, 01:19:04,VALID,1002.93,VALID,0,VALID,91.9903,VALID,0,VALID,23.428,VALID,86,VALID,0.250781,
2012-04-02, 01:20:04,VALID,1002.9,VALID,0,VALID,92.0056,VALID,0,VALID,23.3872,VALID,86,VALID,0.344531,
2012-04-02, 01:21:04,VALID,1002.92,VALID,0,VALID,92.059,VALID,0.104696,VALID,23.3855,VALID,86,VALID,0.3875,
2012-04-02, 01:22:04,VALID,1002.9,VALID,0,VALID,92.0971,VALID,0,VALID,23.4067,VALID,86,VALID,0.28125,
2012-04-02, 01:23:04,VALID,1002.92,VALID,0,VALID,92.1277,VALID,0,VALID,23.3872,VALID,92,VALID,0.554297,
2012-04-02, 01:24:04,VALID,1002.91,VALID,0,VALID,92.1124,VALID,0.104696,VALID,23.3677,VALID,120,VALID,0.679688,
2012-04-02, 01:25:04,VALID,1002.91,VALID,0,VALID,92.1582,VALID,0,VALID,23.389,VALID,120,VALID,0.675,
2012-04-02, 01:26:04,VALID,1002.93,VALID,0,VALID,92.2497,VALID,0,VALID,23.4085,VALID,120,VALID,0.704687,
2012-04-02, 01:27:04,VALID,1002.9,VALID,0,VALID,92.2955,VALID,0,VALID,23.4085,VALID,120,VALID,0.505469,
2012-04-02, 01:28:04,VALID,1002.88,VALID,0,VALID,92.3031,VALID,0,VALID,23.4085,VALID,120,VALID,0.542969,
2012-04-02, 01:29:04,VALID,1002.89,VALID,0,VALID,92.2879,VALID,0,VALID,23.4085,VALID,120,VALID,0.352344,
2012-04-02, 01:30:04,VALID,1002.88,VALID,0,VALID,92.2955,VALID,0,VALID,23.4085,VALID,120,VALID,0.205078,
2012-04-02, 01:31:04,VALID,1002.86,VALID,0,VALID,92.2726,VALID,0,VALID,23.4085,VALID,120,VALID,0.288281,
2012-04-02, 01:32:04,VALID,1002.86,VALID,0,VALID,92.2574,VALID,0,VALID,23.3872,VALID,120,VALID,0.401563,
2012-04-02, 01:33:04,VALID,1002.83,VALID,0,VALID,92.2421,VALID,0,VALID,23.4085,VALID,120,VALID,0.396484,
2012-04-02, 01:34:04,VALID,1002.86,VALID,0,VALID,92.2192,VALID,0,VALID,23.4085,VALID,120,VALID,0.505078,
2012-04-02, 01:35:04,VALID,1002.85,VALID,0,VALID,92.2268,VALID,0,VALID,23.4067,VALID,120,VALID,0.325391,
2012-04-02, 01:36:04,VALID,1002.89,VALID,0,VALID,92.2955,VALID,0,VALID,23.4085,VALID,120,VALID,0.183594,
2012-04-02, 01:37:04,VALID,1002.89,VALID,0,VALID,92.2879,VALID,0,VALID,23.4085,VALID,120,VALID,0,
2012-04-02, 01:38:04,VALID,1002.91,VALID,0,VALID,92.2726,VALID,0,VALID,23.3872,VALID,120,VALID,0,
2012-04-02, 01:39:04,VALID,1002.9,VALID,0,VALID,92.204,VALID,0.104696,VALID,23.3677,VALID,120,VALID,0,
2012-04-02, 01:40:04,VALID,1002.88,VALID,0,VALID,92.1963,VALID,0,VALID,23.389,VALID,120,VALID,0,
2012-04-02, 01:41:04,VALID,1002.86,VALID,0,VALID,92.1734,VALID,0,VALID,23.3695,VALID,120,VALID,0,
2012-04-02, 01:42:04,VALID,1002.81,VALID,0,VALID,92.1811,VALID,0,VALID,23.3695,VALID,120,VALID,0,
2012-04-02, 01:43:04,VALID,1002.83,VALID,0,VALID,92.1887,VALID,0,VALID,23.35,VALID,120,VALID,0.173047,
2012-04-02, 01:44:04,VALID,1002.8,VALID,0,VALID,92.1963,VALID,0,VALID,23.3287,VALID,135,VALID,0.525,
2012-04-02, 01:45:04,VALID,1002.8,VALID,0,VALID,92.1887,VALID,0,VALID,23.3287,VALID,135,VALID,0.653906,
2012-04-02, 01:46:04,VALID,1002.8,VALID,0,VALID,92.3108,VALID,0,VALID,23.3287,VALID,135,VALID,0.614844,
2012-04-02, 01:47:04,VALID,1002.83,VALID,0,VALID,92.3642,VALID,0.104696,VALID,23.3695,VALID,135,VALID,0.559375,
2012-04-02, 01:48:04,VALID,1002.82,VALID,0,VALID,92.4328,VALID,0,VALID,23.3695,VALID,135,VALID,0.551562,
2012-04-02, 01:49:04,VALID,1002.82,VALID,0,VALID,92.4481,VALID,0,VALID,23.4085,VALID,135,VALID,0.586328,
2012-04-02, 01:50:04,VALID,1002.84,VALID,0,VALID,92.41,VALID,0,VALID,23.3872,VALID,135,VALID,0.760547,
2012-04-02, 01:51:04,VALID,1002.86,VALID,0,VALID,92.3794,VALID,0,VALID,23.428,VALID,135,VALID,0.744922,
2012-04-02, 01:52:04,VALID,1002.88,VALID,0,VALID,92.3337,VALID,0,VALID,23.4475,VALID,135,VALID,0.833984,
2012-04-02, 01:53:04,VALID,1002.9,VALID,0,VALID,92.204,VALID,0,VALID,23.4475,VALID,135,VALID,0.881641,
2012-04-02, 01:54:04,VALID,1002.89,VALID,0,VALID,92.0819,VALID,0,VALID,23.4458,VALID,135,VALID,0.678125,
2012-04-02, 01:55:04,VALID,1002.91,VALID,0,VALID,91.9217,VALID,0,VALID,23.4671,VALID,136,VALID,0.693359,
2012-04-02, 01:56:04,VALID,1002.91,VALID,0,VALID,91.7843,VALID,0,VALID,23.4458,VALID,149,VALID,0.780469,
2012-04-02, 01:57:04,VALID,1002.89,VALID,0,VALID,91.7538,VALID,0,VALID,23.4458,VALID,153,VALID,0.462109,
2012-04-02, 01:58:04,VALID,1002.91,VALID,0,VALID,91.6928,VALID,0,VALID,23.4671,VALID,153,VALID,0.539453,
2012-04-02, 01:59:04,VALID,1002.86,VALID,0,VALID,91.7157,VALID,0,VALID,23.4263,VALID,153,VALID,0.463672,
2012-04-02, 02:00:04,VALID,1002.87,VALID,0,VALID,91.6623,VALID,0,VALID,23.4263,VALID,153,VALID,0.545313,
2012-04-02, 02:01:04,VALID,1002.89,VALID,0,VALID,91.7157,VALID,0,VALID,23.4263,VALID,153,VALID,0.566406,
2012-04-02, 02:02:04,VALID,1002.84,VALID,0,VALID,91.7614,VALID,0,VALID,23.4475,VALID,153,VALID,0.547266,
2012-04-02, 02:03:04,VALID,1002.86,VALID,0,VALID,91.7767,VALID,0,VALID,23.4475,VALID,153,VALID,0.604297,
2012-04-02, 02:04:04,VALID,1002.86,VALID,0,VALID,91.8225,VALID,0,VALID,23.4671,VALID,143,VALID,0.6375,
2012-04-02, 02:05:04,VALID,1002.85,VALID,0,VALID,91.8148,VALID,0,VALID,23.4671,VALID,143,VALID,0.621094,
2012-04-02, 02:06:04,VALID,1002.82,VALID,0,VALID,91.7538,VALID,0,VALID,23.4458,VALID,143,VALID,0.401563,
2012-04-02, 02:07:04,VALID,1002.78,VALID,0,VALID,91.7691,VALID,0.104696,VALID,23.4458,VALID,143,VALID,0.435547,
2012-04-02, 02:08:04,VALID,1002.81,VALID,0,VALID,91.7462,VALID,0.104696,VALID,23.4458,VALID,143,VALID,0.539063,
2012-04-02, 02:09:04,VALID,1002.77,VALID,0,VALID,91.6241,VALID,0,VALID,23.4067,VALID,143,VALID,0.539453,
2012-04-02, 02:10:04,VALID,1002.74,VALID,0,VALID,91.5707,VALID,0,VALID,23.3872,VALID,143,VALID,0.488281,
2012-04-02, 02:11:04,VALID,1002.75,VALID,0,VALID,91.6699,VALID,0,VALID,23.3677,VALID,143,VALID,0.488281,
2012-04-02, 02:12:04,VALID,1002.77,VALID,0,VALID,91.8072,VALID,0,VALID,23.3677,VALID,143,VALID,0.439844,
2012-04-02, 02:13:04,VALID,1002.76,VALID,0,VALID,91.9674,VALID,0,VALID,23.3482,VALID,143,VALID,0.43125,
2012-04-02, 02:14:04,VALID,1002.75,VALID,0,VALID,92.1658,VALID,0,VALID,23.3695,VALID,143,VALID,0.553906,
2012-04-02, 02:15:04,VALID,1002.72,VALID,0,VALID,92.2803,VALID,0,VALID,23.3287,VALID,143,VALID,0.395703,
2012-04-02, 02:16:04,VALID,1002.7,VALID,0,VALID,92.3337,VALID,0,VALID,23.3695,VALID,143,VALID,0.457422,
2012-04-02, 02:17:04,VALID,1002.65,VALID,0,VALID,92.3489,VALID,0,VALID,23.35,VALID,143,VALID,0.449609,
2012-04-02, 02:18:04,VALID,1002.63,VALID,0,VALID,92.3031,VALID,0,VALID,23.3287,VALID,143,VALID,0.375391,
2012-04-02, 02:19:04,VALID,1002.63,VALID,0,VALID,92.3413,VALID,0.104696,VALID,23.3305,VALID,143,VALID,0.5,
2012-04-02, 02:20:04,VALID,1002.6,VALID,0,VALID,92.3337,VALID,0,VALID,23.3092,VALID,95,VALID,0.737109,
2012-04-02, 02:21:04,VALID,1002.62,VALID,0,VALID,92.3566,VALID,0,VALID,23.2702,VALID,91,VALID,0.766016,
2012-04-02, 02:22:04,VALID,1002.6,VALID,0,VALID,92.4481,VALID,0,VALID,23.2915,VALID,72,VALID,0.813672,
2012-04-02, 02:23:04,VALID,1002.62,VALID,0,VALID,92.5244,VALID,0,VALID,23.2719,VALID,72,VALID,0.801172,
2012-04-02, 02:24:04,VALID,1002.61,VALID,0,VALID,92.5931,VALID,0,VALID,23.2719,VALID,72,VALID,0.705469,
2012-04-02, 02:25:04,VALID,1002.6,VALID,0,VALID,92.6312,VALID,0,VALID,23.2329,VALID,72,VALID,0.638281,
2012-04-02, 02:26:04,VALID,1002.59,VALID,0,VALID,92.6923,VALID,0,VALID,23.2134,VALID,72,VALID,0.691016,
2012-04-02, 02:27:04,VALID,1002.57,VALID,0,VALID,92.822,VALID,0,VALID,23.2134,VALID,72,VALID,0.794141,
2012-04-02, 02:28:04,VALID,1002.58,VALID,0,VALID,92.9059,VALID,0,VALID,23.1939,VALID,72,VALID,0.788672,
2012-04-02, 02:29:04,VALID,1002.56,VALID,0,VALID,92.9211,VALID,0,VALID,23.1939,VALID,72,VALID,0.657812,
2012-04-02, 02:30:04,VALID,1002.56,VALID,0,VALID,92.8983,VALID,0,VALID,23.1744,VALID,72,VALID,0.580859,
2012-04-02, 02:31:04,VALID,1002.55,VALID,0,VALID,92.8754,VALID,0,VALID,23.1744,VALID,72,VALID,0.574609,
2012-04-02, 02:32:04,VALID,1002.58,VALID,0,VALID,92.8601,VALID,0,VALID,23.1354,VALID,72,VALID,0.589453,
2012-04-02, 02:33:04,VALID,1002.57,VALID,0,VALID,92.9135,VALID,0,VALID,23.1354,VALID,72,VALID,0.588672,
2012-04-02, 02:34:04,VALID,1002.59,VALID,0,VALID,92.9135,VALID,0,VALID,23.1159,VALID,72,VALID,0.469531,
2012-04-02, 02:35:04,VALID,1002.53,VALID,0,VALID,92.9211,VALID,0,VALID,23.0964,VALID,72,VALID,0.390234,
2012-04-02, 02:36:04,VALID,1002.53,VALID,0,VALID,92.9364,VALID,0,VALID,23.0964,VALID,72,VALID,0.337109,
2012-04-02, 02:37:04,VALID,1002.52,VALID,0,VALID,92.9211,VALID,0,VALID,23.0769,VALID,72,VALID,0.292578,
2012-04-02, 02:38:04,VALID,1002.49,VALID,0,VALID,92.944,VALID,0,VALID,23.0556,VALID,72,VALID,0.215625,
2012-04-02, 02:39:04,VALID,1002.47,VALID,0,VALID,92.9135,VALID,0,VALID,23.0573,VALID,72,VALID,0.212891,
2012-04-02, 02:40:04,VALID,1002.48,VALID,0,VALID,92.9135,VALID,0,VALID,23.0378,VALID,72,VALID,0.240234,
2012-04-02, 02:41:04,VALID,1002.45,VALID,0,VALID,92.9211,VALID,0,VALID,23.0183,VALID,72,VALID,0.166406,
2012-04-02, 02:42:04,VALID,1002.44,VALID,0,VALID,92.9288,VALID,0,VALID,22.9988,VALID,72,VALID,0.163281,
2012-04-02, 02:43:04,VALID,1002.44,VALID,0,VALID,92.9211,VALID,0,VALID,22.9793,VALID,72,VALID,0.0675781,
2012-04-02, 02:44:04,VALID,1002.43,VALID,0,VALID,92.9593,VALID,0,VALID,22.9581,VALID,72,VALID,0.0296875,
2012-04-02, 02:45:04,VALID,1002.43,VALID,0,VALID,93.028,VALID,0,VALID,22.9793,VALID,72,VALID,0.137891,
2012-04-02, 02:46:04,VALID,1002.43,VALID,0,VALID,93.0585,VALID,0,VALID,22.9598,VALID,72,VALID,0,
2012-04-02, 02:47:04,VALID,1002.41,VALID,0,VALID,93.0661,VALID,0,VALID,22.9403,VALID,72,VALID,0.101563,
2012-04-02, 02:48:04,VALID,1002.4,VALID,0,VALID,93.0661,VALID,0,VALID,22.9208,VALID,72,VALID,0,
2012-04-02, 02:49:04,VALID,1002.43,VALID,0,VALID,93.0661,VALID,0,VALID,22.9013,VALID,72,VALID,0,
2012-04-02, 02:50:04,VALID,1002.43,VALID,0,VALID,93.028,VALID,0,VALID,22.9013,VALID,72,VALID,0,
2012-04-02, 02:51:04,VALID,1002.48,VALID,0,VALID,93.0051,VALID,0,VALID,22.8818,VALID,72,VALID,0,
2012-04-02, 02:52:04,VALID,1002.48,VALID,0,VALID,92.9974,VALID,0,VALID,22.8623,VALID,72,VALID,0,
2012-04-02, 02:53:04,VALID,1002.46,VALID,0,VALID,93.0432,VALID,0,VALID,22.8623,VALID,72,VALID,0,
2012-04-02, 02:54:04,VALID,1002.44,VALID,0,VALID,93.1043,VALID,0,VALID,22.8427,VALID,72,VALID,0.391406,
2012-04-02, 02:55:04,VALID,1002.47,VALID,0,VALID,93.2111,VALID,0,VALID,22.8623,VALID,75,VALID,0.518359,
2012-04-02, 02:56:04,VALID,1002.46,VALID,0,VALID,93.3026,VALID,0,VALID,22.8818,VALID,120,VALID,0.732031,
2012-04-02, 02:57:04,VALID,1002.46,VALID,0,VALID,93.3713,VALID,0,VALID,22.8818,VALID,120,VALID,0.65,
2012-04-02, 02:58:04,VALID,1002.5,VALID,0,VALID,93.3484,VALID,0,VALID,22.9013,VALID,120,VALID,0.589453,
2012-04-02, 02:59:04,VALID,1002.48,VALID,0,VALID,93.3026,VALID,0,VALID,22.9208,VALID,120,VALID,0.601172,
2012-04-02, 03:00:04,VALID,1002.49,VALID,0,VALID,93.2568,VALID,0,VALID,22.9208,VALID,120,VALID,0.574609,
2012-04-02, 03:01:04,VALID,1002.49,VALID,0,VALID,93.2568,VALID,0,VALID,22.9208,VALID,120,VALID,0.467187,
2012-04-02, 03:02:04,VALID,1002.42,VALID,0,VALID,93.1882,VALID,0,VALID,22.9208,VALID,120,VALID,0.348828,
2012-04-02, 03:03:04,VALID,1002.44,VALID,0,VALID,93.1653,VALID,0,VALID,22.9208,VALID,120,VALID,0.457422,
2012-04-02, 03:04:04,VALID,1002.44,VALID,0,VALID,93.1805,VALID,0,VALID,22.8995,VALID,120,VALID,0.428906,
2012-04-02, 03:05:04,VALID,1002.42,VALID,0,VALID,93.1348,VALID,0,VALID,22.9208,VALID,120,VALID,0.346875,
2012-04-02, 03:06:04,VALID,1002.42,VALID,0,VALID,93.1348,VALID,0,VALID,22.9208,VALID,120,VALID,0.403125,
2012-04-02, 03:07:04,VALID,1002.41,VALID,0,VALID,93.1271,VALID,0,VALID,22.88,VALID,120,VALID,0.482031,
2012-04-02, 03:08:04,VALID,1002.41,VALID,0,VALID,93.1119,VALID,0,VALID,22.9013,VALID,120,VALID,0.624609,
2012-04-02, 03:09:04,VALID,1002.4,VALID,0,VALID,93.1119,VALID,0,VALID,22.9013,VALID,120,VALID,0.641797,
2012-04-02, 03:10:04,VALID,1002.4,VALID,0,VALID,93.1195,VALID,0,VALID,22.88,VALID,120,VALID,0.533203,
2012-04-02, 03:11:04,VALID,1002.4,VALID,0,VALID,93.1348,VALID,0,VALID,22.9013,VALID,125,VALID,0.624219,
2012-04-02, 03:12:04,VALID,1002.38,VALID,0,VALID,93.15,VALID,0,VALID,22.88,VALID,125,VALID,0.535937,
2012-04-02, 03:13:04,VALID,1002.39,VALID,0,VALID,93.1653,VALID,0,VALID,22.9013,VALID,129,VALID,0.797266,
2012-04-02, 03:14:04,VALID,1002.38,VALID,0,VALID,93.2874,VALID,0,VALID,22.9208,VALID,143,VALID,1.35508,
2012-04-02, 03:15:04,VALID,1002.39,VALID,0,VALID,93.4323,VALID,0,VALID,22.9385,VALID,148,VALID,1.28711,
2012-04-02, 03:16:04,VALID,1002.42,VALID,0,VALID,93.5086,VALID,0,VALID,22.9988,VALID,149,VALID,1.21719,
2012-04-02, 03:17:04,VALID,1002.41,VALID,0,VALID,93.5391,VALID,0,VALID,23.0378,VALID,152,VALID,0.932031,
2012-04-02, 03:18:04,VALID,1002.43,VALID,0,VALID,93.4781,VALID,0,VALID,23.0964,VALID,156,VALID,0.982422,
2012-04-02, 03:19:04,VALID,1002.42,VALID,0,VALID,93.4552,VALID,0,VALID,23.1141,VALID,156,VALID,0.802734,
2012-04-02, 03:20:04,VALID,1002.41,VALID,0,VALID,93.4018,VALID,0,VALID,23.1354,VALID,159,VALID,0.975781,
2012-04-02, 03:21:04,VALID,1002.4,VALID,0,VALID,93.3331,VALID,0,VALID,23.1744,VALID,146,VALID,0.660156,
2012-04-02, 03:22:04,VALID,1002.41,VALID,0,VALID,93.1882,VALID,0,VALID,23.2134,VALID,146,VALID,0.374219,
2012-04-02, 03:23:04,VALID,1002.42,VALID,0,VALID,93.0508,VALID,0,VALID,23.1939,VALID,146,VALID,0.335156,
2012-04-02, 03:24:04,VALID,1002.42,VALID,0,VALID,92.9211,VALID,0,VALID,23.1939,VALID,146,VALID,0.361719,
2012-04-02, 03:25:04,VALID,1002.41,VALID,0,VALID,92.9059,VALID,0,VALID,23.1939,VALID,146,VALID,0.452734,
2012-04-02, 03:26:04,VALID,1002.45,VALID,0,VALID,92.944,VALID,0,VALID,23.2134,VALID,137,VALID,0.561719,
2012-04-02, 03:27:04,VALID,1002.46,VALID,0,VALID,92.9364,VALID,0,VALID,23.2329,VALID,137,VALID,0.541406,
2012-04-02, 03:28:04,VALID,1002.47,VALID,0,VALID,92.883,VALID,0,VALID,23.2134,VALID,137,VALID,0.50625,
2012-04-02, 03:29:04,VALID,1002.46,VALID,0,VALID,92.8296,VALID,0,VALID,23.2329,VALID,137,VALID,0.496094,
2012-04-02, 03:30:04,VALID,1002.46,VALID,0,VALID,92.7991,VALID,0,VALID,23.2117,VALID,137,VALID,0.483203,
2012-04-02, 03:31:04,VALID,1002.49,VALID,0,VALID,92.7914,VALID,0,VALID,23.2329,VALID,137,VALID,0.549219,
2012-04-02, 03:32:04,VALID,1002.47,VALID,0,VALID,92.7609,VALID,0,VALID,23.2134,VALID,114,VALID,0.998047,
2012-04-02, 03:33:04,VALID,1002.5,VALID,0,VALID,92.7838,VALID,0,VALID,23.2329,VALID,114,VALID,0.753125,
2012-04-02, 03:34:04,VALID,1002.48,VALID,0,VALID,92.738,VALID,0,VALID,23.2134,VALID,114,VALID,0.642969,
2012-04-02, 03:35:04,VALID,1002.55,VALID,0,VALID,92.6236,VALID,0,VALID,23.1921,VALID,114,VALID,0.555078,
2012-04-02, 03:36:04,VALID,1002.52,VALID,0,VALID,92.6007,VALID,0,VALID,23.1939,VALID,114,VALID,0.573047,
2012-04-02, 03:37:04,VALID,1002.47,VALID,0,VALID,92.6312,VALID,0,VALID,23.1531,VALID,114,VALID,0.701953,
2012-04-02, 03:38:04,VALID,1002.5,VALID,0,VALID,92.7151,VALID,0,VALID,23.1744,VALID,109,VALID,0.824609,
2012-04-02, 03:39:04,VALID,1002.49,VALID,0,VALID,92.6846,VALID,0,VALID,23.1549,VALID,102,VALID,0.666016,
2012-04-02, 03:40:04,VALID,1002.51,VALID,0,VALID,92.6846,VALID,0,VALID,23.1549,VALID,102,VALID,0.614844,
2012-04-02, 03:41:04,VALID,1002.5,VALID,0,VALID,92.6617,VALID,0,VALID,23.1354,VALID,102,VALID,0.465625,
2012-04-02, 03:42:04,VALID,1002.5,VALID,0,VALID,92.6465,VALID,0,VALID,23.1354,VALID,102,VALID,0.231641,
2012-04-02, 03:43:04,VALID,1002.52,VALID,0,VALID,92.6236,VALID,0,VALID,23.1159,VALID,102,VALID,0,
2012-04-02, 03:44:04,VALID,1002.52,VALID,0,VALID,92.6236,VALID,0,VALID,23.1159,VALID,102,VALID,0,
2012-04-02, 03:45:04,VALID,1002.56,VALID,0,VALID,92.6388,VALID,0,VALID,23.1159,VALID,102,VALID,0,
2012-04-02, 03:46:04,VALID,1002.56,VALID,0,VALID,92.6236,VALID,0.104696,VALID,23.0769,VALID,102,VALID,0,
2012-04-02, 03:47:04,VALID,1002.58,VALID,0,VALID,92.677,VALID,0,VALID,23.0556,VALID,102,VALID,0,